Regional Weather Roundup
Issued by NWS

Home | Current Version | Previous Version | Graphics & Text | Print | Product List | Glossary On
Versions: 1 2 3 4 5 6 7 8 9 10 11 12 13 14 15 16 17 18 19 20 21 22 23 24 25 26 27 28 29 30 31 32 33 34 35 36 37 38 39 40 41 42 43 44 45 46 47 48 49 50
000
ASUS45 KABQ 222110
RWRNM
NEW MEXICO REGIONAL WEATHER ROUNDUP
NATIONAL WEATHER SERVICE ALBUQUERQUE NM
300 PM MDT THU JUN 22 2017

NOTE: "FAIR" MEANS FEW OR NO CLOUDS BELOW 12,000 FEET AGL WITH NO
       SIGNIFICANT WEATHER OR OBSTRUCTIONS TO VISION.

      THIS PRODUCT IS RELEASED AS TWO VERSIONS.  ONE VERSION NEAR
      THE TOP OF THE HOUR CONTAINING PRELIMINARY DATA FROM ALBUQUERQUE
      AND OTHER STATIONS.  A FINAL VERSION WITH ADDITIONAL DATA IS
      ISSUED ABOUT 10 MINUTES AFTER THE HOUR.

NMZ501-503-504-510>518-222200-
NORTHWEST PLATEAU/NORTHCENTRAL MOUNTAINS

CITY           SKY/WX    TMP DP  RH WIND       PRES   REMARKS
FARMINGTON     FAIR      98  23   7 SW15G26   29.94F
LOS ALAMOS     FAIR      86  39  19 E9        30.12F
SANTA FE       FAIR      93  35  13 NE14      30.03F
TAOS           FAIR      84  39  20 SE13      30.09F
ANGEL FIRE     FAIR      76  39  25 S5        30.21F

$$
NMZ402-403-502-505>509-222200-
WESTCENTRAL MOUNTAINS/SOUTHWEST MOUNTAINS

CITY           SKY/WX    TMP DP  RH WIND       PRES   REMARKS
GALLUP         FAIR      94  26   9 W15G23    30.07F
GRANTS         FAIR      91  28  10 NW9G31    30.08F
SILVER CITY    FAIR     100  37  11 W8G24     29.96F

$$
NMZ407-409-411-412-222200-
SOUTHERN DESERTS

CITY           SKY/WX    TMP DP  RH WIND       PRES   REMARKS
DEMING         FAIR     105  33   8 CALM      29.85F HX  98
LAS CRUCES     FAIR     105  37   9 SW3       29.87F HX  98
HOLLOMAN AFB   FAIR     103  35   9 W10       29.83F HX  97
ALAMOGORDO     FAIR     104  39  11 NW8G16    29.83F HX  98
T OR C         FAIR     102  30   8 VRB6G18   29.87F HX  95

$$
NMZ519>523-222200-
CENTRAL VALLEYS/CENTRAL HIGHLANDS

CITY           SKY/WX    TMP DP  RH WIND       PRES   REMARKS
ALBUQUERQUE    PTSUNNY   98  34  10 N9        29.93F
DOUBLE EAGLE   PTSUNNY  100  34  10 W10G22    29.98F
MORIARTY ARPT  FAIR      97  32  10 NW14G20   30.00F
CLINES CORNERS FAIR      94  28   9 NW16G29   30.07F
BELEN          FAIR     102  30   8 NW10G22   29.91F HX  95
SOCORRO        FAIR     101  32   9 E7        29.88F

$$
NMZ524>526-539-540-222200-
SOUTHCENTRAL MOUNTAINS

CITY           SKY/WX    TMP DP  RH WIND       PRES   REMARKS
RUIDOSO        FAIR      91  32  12 NW12      30.09F

$$
NMZ527>531-222200-
NORTHEAST HIGHLANDS/NORTHEAST PLAINS

CITY           SKY/WX    TMP DP  RH WIND       PRES   REMARKS
LAS VEGAS      FAIR      91  26   9 NE8       30.03F
RATON          FAIR      93  24   8 VRB5G33   29.96S
CLAYTON        FAIR      99  37  11 CALM      29.84F

$$
NMZ532>537-222200-
EASTCENTRAL PLAINS

CITY           SKY/WX    TMP DP  RH WIND       PRES   REMARKS
TUCUMCARI      FAIR     107  38   9 VRB7      29.73F HX 101
CANNON AFB     FAIR     101  45  14 SE8       29.80F HX  97
CLOVIS AIRPORT FAIR     100  53  20 S17       29.80F HX  98

$$
NMZ028-029-538-222200-
SOUTHEAST PLAINS

CITY           SKY/WX    TMP DP  RH WIND       PRES   REMARKS
ROSWELL        FAIR     106  49  14 SE13      29.74F HX 103
ARTESIA        FAIR     102  52  18 VRB6G13   29.75F HX 100
CARLSBAD       PTSUNNY  104  51  17 SE12G17   29.73F HX 101
HOBBS          SUNNY     99  48  18 SE12      29.81F HX  95


$$



USA.gov is the U.S. government's official web portal to all federal, state and local government web resources and services.